EW9931 Weather Reports


Display with metric or nautical units.
time (UTC)temp
F
wind
direction
speed
MPH
gust
MPH
rain 1hr
in
rain 24hr
in
rain mn
in
humidity
%
barometer
mb
20260508181517 67 243 0.0 0.0 0.00 0.00 0.00 13 1007.9
20260508180015 66 209 0.0 0.0 0.00 0.00 0.00 13 1007.8
20260508174528 66 215 0.0 0.0 0.00 0.00 0.00 15 1007.6
20260508173011 65 44 0.0 0.0 0.00 0.00 0.00 21 1007.8
20260508171507 64 253 0.0 0.0 0.00 0.00 0.00 17 1008.0
20260508170002 64 253 0.0 0.0 0.00 0.00 0.00 17 1007.4
20260508164604 63 164 0.0 0.0 0.00 0.00 0.00 22 1007.9
20260508163114 62 270 0.0 0.0 0.00 0.00 0.00 18 1008.0
20260508161551 61 161 0.0 0.0 0.00 0.00 0.00 20 1008.3
20260508160050 59 185 0.0 0.0 0.00 0.00 0.00 20 1007.8
20260508154552 58 161 0.0 0.0 0.00 0.00 0.00 20 1008.2
20260508153043 56 147 0.0 0.0 0.00 0.00 0.00 23 1008.7
20260508151541 53 145 0.0 0.0 0.00 0.00 0.00 28 1009.6
20260508150033 51 145 0.0 0.0 0.00 0.00 0.00 33 1009.1
20260508144536 49 145 0.0 0.0 0.00 0.00 0.00 37 1009.3
20260508143027 47 145 0.0 0.0 0.00 0.00 0.00 40 1009.4
20260508141524 46 145 0.0 0.0 0.00 0.00 0.00 40 1010.0
20260508140029 45 145 0.0 0.0 0.00 0.00 0.00 39 1009.3
20260508134525 44 145 0.0 0.0 0.00 0.00 0.00 36 1009.8
20260508133022 43 145 0.0 0.0 0.00 0.00 0.00 37 1009.7
20260508131520 43 145 0.0 0.0 0.00 0.00 0.00 38 1009.6
20260508130019 43 145 0.0 0.0 0.00 0.00 0.00 39 1008.0
20260508124518 43 145 0.0 0.0 0.00 0.00 0.00 36 1007.9
20260508123017 43 145 0.0 0.0 0.00 0.00 0.00 39 1007.9
20260508121517 43 145 0.0 0.0 0.00 0.00 0.00 39 1007.9
20260508120016 43 145 0.0 0.0 0.00 0.00 0.00 39 1007.8
20260508114515 43 145 0.0 0.0 0.00 0.00 0.00 41 1007.9
20260508113014 44 145 0.0 0.0 0.00 0.00 0.00 39 1007.9
20260508111513 44 145 0.0 0.0 0.00 0.00 0.00 40 1007.8
20260508110011 44 145 0.0 0.0 0.00 0.00 0.00 41 1006.9
20260508104510 44 145 0.0 0.0 0.00 0.00 0.00 39 1006.9
20260508103012 44 145 0.0 0.0 0.00 0.00 0.00 41 1007.0
20260508101522 44 145 0.0 0.0 0.00 0.00 0.00 41 1007.1
20260508100007 44 145 0.0 0.0 0.00 0.00 0.00 42 1007.2
20260508094507 44 145 0.0 0.0 0.00 0.00 0.00 43 1007.2
20260508093020 45 145 0.0 0.0 0.00 0.00 0.00 43 1007.2
20260508091503 45 145 0.0 0.0 0.00 0.00 0.00 43 1007.3
20260508090006 45 145 0.0 0.0 0.00 0.00 0.00 44 1007.4
20260508084502 45 145 0.0 0.0 0.00 0.00 0.00 47 1007.5
20260508083001 45 145 0.0 0.0 0.00 0.00 0.00 46 1007.5
20260508081615 45 145 0.0 0.0 0.00 0.00 0.00 47 1007.6
20260508080104 45 145 0.0 0.0 0.00 0.00 0.00 49 1007.4
20260508074557 46 145 0.0 0.0 0.00 0.00 0.00 48 1007.5
20260508073059 46 145 0.0 0.0 0.00 0.00 0.00 48 1007.6
20260508071556 46 145 0.0 0.0 0.00 0.00 0.00 47 1007.5
20260508070056 46 145 0.0 0.0 0.00 0.00 0.00 48 1007.9
20260508064555 47 145 0.0 0.0 0.00 0.00 0.00 48 1008.0
20260508063056 47 145 0.0 0.0 0.00 0.00 0.00 49 1007.8
20260508061605 47 145 0.0 0.0 0.00 0.00 0.00 50 1007.3
20260508060055 48 145 0.0 0.0 0.00 0.00 0.00 50 1008.3
20260508054630 48 175 0.0 0.0 0.00 0.00 0.00 50 1008.4
20260508053053 48 175 0.0 0.0 0.00 0.00 0.00 50 1008.5
20260508051552 49 175 0.0 0.0 0.00 0.00 0.00 49 1008.5
20260508050053 49 175 0.0 0.0 0.00 0.00 0.00 49 1008.4
20260508044600 49 175 0.0 0.0 0.00 0.00 0.00 48 1008.4
20260508043051 50 175 0.0 0.0 0.00 0.00 0.00 48 1008.3
20260508041557 51 175 0.0 0.0 0.00 0.00 0.00 47 1008.0
20260508040055 51 175 0.0 0.0 0.00 0.00 0.00 46 1008.8
20260508034600 52 175 0.0 0.0 0.00 0.00 0.00 43 1008.3
20260508033050 53 175 0.0 0.0 0.00 0.00 0.00 40 1008.2
20260508031558 54 192 0.0 0.0 0.00 0.00 0.00 37 1007.5
20260508030106 56 192 0.0 0.0 0.00 0.00 0.00 35 1009.2
20260508024548 57 192 0.0 0.0 0.00 0.00 0.00 33 1009.3
20260508023048 58 192 0.0 0.0 0.00 0.00 0.00 1008.1
20260508021547 58 76 0.0 0.0 0.00 0.00 0.00 30 1009.2
20260508020046 59 234 0.0 0.0 0.00 0.00 0.00 28 1010.2
20260508014546 59 232 0.0 0.0 0.00 0.00 0.00 30 1009.6
20260508013045 60 199 1.0 0.0 0.00 0.00 0.00 29 1009.6
20260508011553 62 145 1.0 0.0 0.00 0.00 0.00 30 1009.0
20260508010045 64 168 1.0 0.0 0.00 0.00 0.00 27 1008.6
20260508004543 65 147 1.0 0.0 0.00 0.00 0.00 26 1008.0
20260508003049 65 295 1.0 0.0 0.00 0.00 0.00 27 1008.1
20260508001543 65 133 1.0 0.0 0.00 0.00 0.00 26 1008.6
20260508000040 65 138 2.0 0.0 0.00 0.00 0.00 30 1008.0
20260507234541 66 200 2.0 0.0 0.00 0.00 0.00 26 1008.0
20260507233041 67 133 1.0 0.0 0.00 0.00 0.00 26 1007.6
20260507231550 67 329 1.0 0.0 0.00 0.00 0.00 27 1007.4
20260507230040 67 217 1.0 0.0 0.00 0.00 0.00 27 1007.3
20260507224551 66 280 1.0 0.0 0.00 0.00 0.00 24 1007.7
20260507223043 66 210 2.0 0.0 0.00 0.00 0.00 26 1007.7
20260507221539 66 144 2.0 0.0 0.00 0.00 0.00 24 1008.4
20260507220037 67 240 1.0 0.0 0.00 0.00 0.00 24 1007.8
20260507214539 67 288 1.0 0.0 0.00 0.00 0.00 22 1007.7
20260507213036 67 237 1.0 0.0 0.00 0.00 0.00 24 1007.8
20260507211531 68 268 1.0 0.0 0.00 0.00 0.00 23 1007.9
20260507210056 67 205 0.0 0.0 0.00 0.00 0.00 24 1007.9
20260507204530 67 186 1.0 0.0 0.00 0.00 0.00 27 1007.8
20260507203029 67 282 1.0 0.0 0.00 0.00 0.00 17 1008.2
20260507201534 68 1 0.0 0.0 0.00 0.00 0.00 18 1008.4
20260507200047 68 251 1.0 0.0 0.00 0.00 0.00 18 1008.4
20260507194526 67 350 1.0 0.0 0.00 0.00 0.00 20 1008.2
20260507193040 66 332 1.0 0.0 0.00 0.00 0.00 21 1008.9
20260507191527 66 79 1.0 0.0 0.00 0.00 0.00 21 1009.1
20260507190031 66 239 1.0 0.0 0.00 0.00 0.00 22 1009.1
20260507184515 64 308 0.0 0.0 0.00 0.00 0.00 22 1009.3
20260507183018 63 332 1.0 0.0 0.00 0.00 0.00 23 1009.8